Powrót do katalogu

CZ-6A DEB

AktywnyPO
NORAD 55534·DEBRIS·🇨🇳 China

Wystrzelony Nov 11, 2022 z Taiyuan Satellite Launch Center

Loading…

Następne Przeloty (najbliższe 24 godziny)

TLE

ŚwieżeSource: Space-Track

Epoka: Sep 13, 2026, 19:14 UTC

1 55534U 22151YG  26256.80173957  .00041558  00000-0  28126-2 0  9998
2 55534  98.6415 352.2805 0034219 299.7515  60.0306 15.05895798199370

Śledź CZ-6A DEB w czasie rzeczywistym z AllMySat

Download on the App Store